M I D A S
Marine Information and Data Acquisition System
Tripno 694 of the Zeeleeuw from 2004-04-14 06:14:40 to 2004-04-14 15:42:14
Back to CruiseResearch ActivitiesStationsMapUnderway DataData graphs

EquipmentUnitsComments
TimeDGPSUTC
LatitudeDGPSDM.mWGS84
LongitudeDGPSDM.mWGS84
SpeedMeteo Stationm/sRelative wind speed
DirectionMeteo StationdegRelative wind direction
TemperatureMeteo Stationdeg CelciusAir temperature
PressureMeteo StationPaAtmospheric pressure
HumidityMeteo Station%Relative humidity
Missing or incorrect values are displayed as -999
Metereological data collected by the RV Zeeleeuw from 2004-04-14 06:14:40 to 2004-04-14 15:42:14
                                                                                    Next 1000 lines
Time Latitude Longitude Speed Direction Temperature Pressure Humidity
2004-04-14 06:14:48 51°13.653 2°55.978 1.5 68 5.3 102230 94
2004-04-14 06:14:53 51°13.653 2°55.978 1.5 68 5.3 102220 94
2004-04-14 06:14:59 51°13.653 2°55.978 1.4 78 5.3 102220 94
2004-04-14 06:15:04 51°13.653 2°55.977 1.2 79 5.3 102230 94
2004-04-14 06:15:08 51°13.653 2°55.975 1.3 96 5.3 102230 94
2004-04-14 06:15:13 51°13.654 2°55.972 1 101 5.3 102220 94
2004-04-14 06:15:19 51°13.655 2°55.966 1.1 117 5.3 102220 94
2004-04-14 06:15:24 51°13.657 2°55.961 1 119 5.3 102220 94
2004-04-14 06:15:29 51°13.658 2°55.956 1.2 126 5.3 102220 94
2004-04-14 06:15:34 51°13.659 2°55.95 1.4 121 5.3 102220 94
2004-04-14 06:15:39 51°13.661 2°55.943 1.4 129 5.3 102220 94
2004-04-14 06:15:44 51°13.662 2°55.936 1.3 134 5.2 102220 94
2004-04-14 06:15:49 51°13.664 2°55.929 1.4 147 5.2 102220 94
2004-04-14 06:15:54 51°13.665 2°55.921 1.7 150 5.3 102220 94
2004-04-14 06:15:59 51°13.667 2°55.912 1.8 148 5.3 102220 94
2004-04-14 06:16:04 51°13.668 2°55.904 2.1 137 5.2 102220 94
2004-04-14 06:16:09 51°13.669 2°55.895 2.1 135 5.2 102220 94
2004-04-14 06:16:14 51°13.671 2°55.885 2 137 5.2 102220 94
2004-04-14 06:16:19 51°13.672 2°55.876 2.6 141 5.2 102220 94
2004-04-14 06:16:24 51°13.673 2°55.866 2.6 136 5.3 102220 94
2004-04-14 06:16:29 51°13.674 2°55.856 2.1 149 5.3 102220 94
2004-04-14 06:16:34 51°13.675 2°55.845 2.2 146 5.2 102220 94
2004-04-14 06:16:39 51°13.675 2°55.835 2.9 156 5.2 102220 94
2004-04-14 06:16:44 51°13.676 2°55.824 2.5 161 5.2 102220 94
2004-04-14 06:16:49 51°13.676 2°55.814 3 161 5.2 102220 94
2004-04-14 06:16:53 51°13.676 2°55.805 2.8 161 5.2 102220 94
2004-04-14 06:16:59 51°13.675 2°55.793 3.2 157 5.2 102220 94
2004-04-14 06:17:04 51°13.675 2°55.783 2.6 153 5.2 102220 94
2004-04-14 06:17:09 51°13.674 2°55.774 2.4 155 5.2 102220 94
2004-04-14 06:17:14 51°13.674 2°55.767 2.3 146 5.2 102220 94
2004-04-14 06:17:19 51°13.673 2°55.761 2 139 5.2 102220 94
2004-04-14 06:17:23 51°13.673 2°55.758 1.8 128 5.2 102220 94
2004-04-14 06:17:29 51°13.673 2°55.754 1.6 76 5.2 102220 94
2004-04-14 06:17:33 51°13.673 2°55.753 1.5 123 5.3 102220 94
2004-04-14 06:17:39 51°13.673 2°55.752 1.3 74 5.3 102220 94
2004-04-14 06:17:43 51°13.674 2°55.752 1.5 95 5.3 102220 94
2004-04-14 06:17:49 51°13.675 2°55.754 1.5 130 5.3 102220 94
2004-04-14 06:17:53 51°13.676 2°55.755 1.6 130 5.3 102220 94
2004-04-14 06:17:57 51°13.678 2°55.757 1.3 132 5.3 102220 94
2004-04-14 06:18:04 51°13.682 2°55.76 1 117 5.3 102220 94
2004-04-14 06:18:09 51°13.685 2°55.762 1.1 118 5.3 102220 94
2004-04-14 06:18:13 51°13.688 2°55.763 0.8 119 5.3 102220 94
2004-04-14 06:18:19 51°13.693 2°55.765 0.6 119 5.3 102220 94
2004-04-14 06:18:23 51°13.696 2°55.765 0.4 119 5.3 102220 94
2004-04-14 06:18:28 51°13.701 2°55.765 0.2 118 5.3 102220 94
2004-04-14 06:18:33 51°13.706 2°55.763 0.2 119 5.4 102220 94
2004-04-14 06:18:39 51°13.711 2°55.761 0.1 118 5.4 102220 94
2004-04-14 06:18:43 51°13.715 2°55.758 0.2 116 5.4 102220 94
2004-04-14 06:18:49 51°13.721 2°55.753 0.5 75 5.4 102220 94
2004-04-14 06:18:53 51°13.725 2°55.749 0.4 75 5.4 102220 94
2004-04-14 06:18:59 51°13.731 2°55.743 0.3 74 5.4 102220 94
2004-04-14 06:19:03 51°13.735 2°55.738 0.2 75 5.4 102220 94
2004-04-14 06:19:09 51°13.742 2°55.731 0.4 58 5.4 102220 94
2004-04-14 06:19:13 51°13.747 2°55.726 1.6 315 5.5 102220 94
2004-04-14 06:19:19 51°13.754 2°55.718 1.8 227 5.5 102220 94
2004-04-14 06:19:23 51°13.76 2°55.712 1.8 326 5.5 102220 94
2004-04-14 06:19:28 51°13.766 2°55.704 1.3 324 5.5 102220 94
2004-04-14 06:19:33 51°13.773 2°55.696 1.4 332 5.5 102220 94
2004-04-14 06:19:39 51°13.782 2°55.686 1.8 345 5.5 102220 94
2004-04-14 06:19:44 51°13.789 2°55.677 1.8 351 5.5 102220 94
2004-04-14 06:19:49 51°13.797 2°55.668 1.5 354 5.5 102220 94
2004-04-14 06:19:53 51°13.803 2°55.661 1 354 5.5 102220 94
2004-04-14 06:19:59 51°13.813 2°55.651 1.2 354 5.5 102220 94
2004-04-14 06:20:03 51°13.82 2°55.644 1 353 5.6 102220 94
2004-04-14 06:20:09 51°13.83 2°55.634 0.8 353 5.6 102220 94
2004-04-14 06:20:13 51°13.837 2°55.628 0.8 353 5.6 102220 94
2004-04-14 06:20:19 51°13.848 2°55.618 0.9 354 5.6 102220 94
2004-04-14 06:20:23 51°13.855 2°55.612 1.1 12 5.6 102220 94
2004-04-14 06:20:29 51°13.866 2°55.603 1.8 13 5.6 102220 94
2004-04-14 06:20:33 51°13.874 2°55.598 1.6 8 5.6 102220 94
2004-04-14 06:20:39 51°13.885 2°55.589 1.7 357 5.6 102220 94
2004-04-14 06:20:43 51°13.893 2°55.583 1.6 352 5.6 102220 94
2004-04-14 06:20:48 51°13.902 2°55.575 1.4 4 5.6 102220 94
2004-04-14 06:20:53 51°13.912 2°55.568 1.5 10 5.6 102220 94
2004-04-14 06:20:59 51°13.924 2°55.56 1.5 3 5.6 102220 94
2004-04-14 06:21:04 51°13.934 2°55.553 1.8 350 5.7 102220 94
2004-04-14 06:21:09 51°13.944 2°55.545 1.9 2 5.7 102220 94
2004-04-14 06:21:13 51°13.952 2°55.54 1.7 9 5.7 102220 94
2004-04-14 06:21:19 51°13.964 2°55.531 1.6 9 5.7 102220 94
2004-04-14 06:21:23 51°13.972 2°55.526 1.6 9 5.7 102220 94
2004-04-14 06:21:28 51°13.982 2°55.519 1.5   5.7 102220 94
2004-04-14 06:21:33 51°13.992 2°55.511 1.2 6 5.7 102220 94
2004-04-14 06:21:39 51°14.004 2°55.503 1.4 10 5.7 102220 94
2004-04-14 06:21:43 51°14.013 2°55.497 1.4 13 5.7 102220 94
2004-04-14 06:21:48 51°14.023 2°55.49 1.5   5.7 102220 94
2004-04-14 06:21:53 51°14.033 2°55.483 1.8 6 5.8 102220 94
2004-04-14 06:21:59 51°14.046 2°55.474 1.6 10 5.8 102220 94
2004-04-14 06:22:03 51°14.055 2°55.468 1.7 9 5.8 102220 94
2004-04-14 06:22:09 51°14.067 2°55.459 1.9 6 5.8 102220 94
2004-04-14 06:22:13 51°14.076 2°55.453 2.1 9 5.8 102220 94
2004-04-14 06:22:19 51°14.089 2°55.443 1.8 13 5.8 102220 94
2004-04-14 06:22:23 51°14.098 2°55.437 1.9 15 5.8 102220 94
2004-04-14 06:22:28 51°14.11 2°55.429 1.8 4 5.8 102220 94
2004-04-14 06:22:33 51°14.121 2°55.42 1.8 359 5.8 102220 94
2004-04-14 06:22:39 51°14.135 2°55.409 2 6 5.8 102220 94
2004-04-14 06:22:43 51°14.145 2°55.402 2.2 5 5.8 102220 94
2004-04-14 06:22:48 51°14.157 2°55.392 2.3 6 5.8 102220 94
2004-04-14 06:22:53 51°14.169 2°55.381 2.3 4 5.9 102220 94
2004-04-14 06:22:59 51°14.183 2°55.367 2.6 4 5.9 102220 94
2004-04-14 06:23:03 51°14.192 2°55.358 2.5 1 5.9 102220 94
2004-04-14 06:23:08 51°14.203 2°55.345 3.1 357 5.9 102220 94
2004-04-14 06:23:13 51°14.214 2°55.331 3 355 5.9 102220 94
2004-04-14 06:23:19 51°14.228 2°55.314 3.4 356 5.9 102220 94
2004-04-14 06:23:23 51°14.236 2°55.302 3 356 5.9 102220 94
2004-04-14 06:23:28 51°14.247 2°55.287 3.3 348 5.9 102220 94
2004-04-14 06:23:33 51°14.258 2°55.271 3.3 344 6 102220 94
2004-04-14 06:23:39 51°14.271 2°55.251 3.1 347 6 102220 94
2004-04-14 06:23:44 51°14.281 2°55.235 3.4 347 6 102220 94
2004-04-14 06:23:49 51°14.291 2°55.217 3.3 334 6 102220 94
2004-04-14 06:23:53 51°14.299 2°55.202 3.6 344 6 102220 94
2004-04-14 06:23:59 51°14.31 2°55.179 3.6 347 6 102220 94
2004-04-14 06:24:04 51°14.319 2°55.159 3.9 348 6 102220 94
2004-04-14 06:24:08 51°14.326 2°55.143 3.8 338 6 102220 94
2004-04-14 06:24:13 51°14.335 2°55.122 3.7 325 6.1 102220 94
2004-04-14 06:24:18 51°14.344 2°55.101 4.4 328 6.1 102220 94
2004-04-14 06:24:23 51°14.354 2°55.08 3 339 6.1 102220 94
2004-04-14 06:24:29 51°14.366 2°55.056 3.1 342 6.1 102220 94
2004-04-14 06:24:33 51°14.376 2°55.041 2.8 355 6.2 102220 94
2004-04-14 06:24:39 51°14.392 2°55.02 3.1 12 6.2 102220 94
2004-04-14 06:24:43 51°14.403 2°55.007 3.8 1 6.2 102220 94
2004-04-14 06:24:48 51°14.418 2°54.991 3.8 8 6.2 102220 94
2004-04-14 06:24:53 51°14.433 2°54.975 3.9 8 6.2 102220 94
2004-04-14 06:24:58 51°14.45 2°54.96 3.6 23 6.2 102220 94
2004-04-14 06:25:04 51°14.469 2°54.944 3.5 13 6.3 102220 94
2004-04-14 06:25:09 51°14.486 2°54.929 4.1 14 6.3 102220 94
2004-04-14 06:25:13 51°14.499 2°54.917 4.4 5 6.3 102220 94
2004-04-14 06:25:19 51°14.518 2°54.898 4.9 8 6.3 102220 94
2004-04-14 06:25:23 51°14.531 2°54.885 5.3 6 6.4 102220 94
2004-04-14 06:25:29 51°14.549 2°54.865 5.4 5 6.4 102220 94
2004-04-14 06:25:33 51°14.562 2°54.852 5.5 5 6.4 102220 94
2004-04-14 06:25:39 51°14.581 2°54.831 5.9 5 6.4 102220 94
2004-04-14 06:25:43 51°14.593 2°54.818 6.5 3 6.5 102220 94
2004-04-14 06:25:48 51°14.609 2°54.8 6.3 358 6.5 102220 94
2004-04-14 06:25:53 51°14.625 2°54.783 6.8 359 6.5 102220 94
2004-04-14 06:25:58 51°14.64 2°54.766 6.3 360 6.5 102220 94
2004-04-14 06:26:03 51°14.656 2°54.749 6.2 357 6.5 102220 94
2004-04-14 06:26:08 51°14.672 2°54.732 6.4 350 6.5 102220 94
2004-04-14 06:26:13 51°14.688 2°54.715 7.2 353 6.5 102220 94
2004-04-14 06:26:19 51°14.707 2°54.695 7.7 343 6.5 102220 94
2004-04-14 06:26:23 51°14.72 2°54.681 7.8 344 6.6 102220 94
2004-04-14 06:26:29 51°14.739 2°54.661 7.6 344 6.6 102220 94
2004-04-14 06:26:33 51°14.751 2°54.648 7.3 344 6.6 102220 94
2004-04-14 06:26:39 51°14.771 2°54.627 7.3 346 6.6 102220 94
2004-04-14 06:26:43 51°14.784 2°54.614 7.3 348 6.7 102220 94
2004-04-14 06:26:49 51°14.803 2°54.594 7.9 344 6.7 102220 94
2004-04-14 06:26:53 51°14.815 2°54.58 7.4 343 6.7 102210 94
2004-04-14 06:26:59 51°14.834 2°54.56 7.7 346 6.7 102210 94
2004-04-14 06:27:03 51°14.847 2°54.546 7.9 344 6.7 102220 94
2004-04-14 06:27:09 51°14.866 2°54.526 7.7 346 6.7 102220 94
2004-04-14 06:27:13 51°14.879 2°54.513 8 347 6.7 102220 94
2004-04-14 06:27:19 51°14.898 2°54.492 7.2 347 6.7 102220 94
2004-04-14 06:27:23 51°14.91 2°54.479 7.6 348 6.7 102220 94
2004-04-14 06:27:29 51°14.929 2°54.458 7.2 348 6.7 102220 94
2004-04-14 06:27:33 51°14.942 2°54.444 7.2 347 6.7 102220 94
2004-04-14 06:27:39 51°14.961 2°54.424 6.6 344 6.7 102220 94
2004-04-14 06:27:43 51°14.973 2°54.41 6.5 344 6.7 102230 94
2004-04-14 06:27:49 51°14.991 2°54.389 7 347 6.7 102230 94
2004-04-14 06:27:53 51°15.004 2°54.376 6.6 345 6.7 102220 94
2004-04-14 06:27:58 51°15.019 2°54.359 6.3 346 6.7 102220 94
2004-04-14 06:28:04 51°15.039 2°54.339 6.4 345 6.7 102220 94
2004-04-14 06:28:08 51°15.051 2°54.325 6.1 346 6.7 102220 94
2004-04-14 06:28:13 51°15.067 2°54.308 6 349 6.7 102220 94
2004-04-14 06:28:18 51°15.082 2°54.291 6.1 346 6.7 102220 94
2004-04-14 06:28:23 51°15.098 2°54.275 6 347 6.7 102220 94
2004-04-14 06:28:28 51°15.114 2°54.258 5.5 349 6.7 102220 94
2004-04-14 06:28:33 51°15.13 2°54.241 6.3 349 6.7 102230 94
2004-04-14 06:28:39 51°15.149 2°54.221 5.9 350 6.7 102230 94
2004-04-14 06:28:43 51°15.162 2°54.208 5.7 353 6.8 102230 94
2004-04-14 06:28:49 51°15.182 2°54.188 5.4 354 6.8 102230 94
2004-04-14 06:28:53 51°15.195 2°54.176 5.8 352 6.8 102230 94
2004-04-14 06:28:59 51°15.214 2°54.156 5.8 352 6.8 102230 94
2004-04-14 06:29:03 51°15.228 2°54.144 5.4 354 6.8 102220 94
2004-04-14 06:29:09 51°15.247 2°54.125 5.7 355 6.8 102220 94
2004-04-14 06:29:13 51°15.261 2°54.113 6.4 352 6.8 102220 94
2004-04-14 06:29:19 51°15.28 2°54.094 6.5 348 6.8 102220 94
2004-04-14 06:29:23 51°15.294 2°54.081 6.8 352 6.8 102230 94
2004-04-14 06:29:28 51°15.31 2°54.065 7 350 6.8 102230 94
2004-04-14 06:29:33 51°15.326 2°54.049 7.1 349 6.8 102230 94
2004-04-14 06:29:39 51°15.346 2°54.03 6.7 345 6.8 102230 94
2004-04-14 06:29:44 51°15.363 2°54.014 6.6 349 6.8 102230 94
2004-04-14 06:29:48 51°15.376 2°54.001 7.1 349 6.8 102230 94
2004-04-14 06:29:53 51°15.393 2°53.986 7.3 349 6.8 102220 94
2004-04-14 06:29:59 51°15.412 2°53.967 7.9 348 6.8 102220 94
2004-04-14 06:30:03 51°15.426 2°53.954 7.7 345 6.9 102220 94
2004-04-14 06:30:08 51°15.442 2°53.938 8.5 351 6.9 102220 94
2004-04-14 06:30:13 51°15.458 2°53.923 8.3 351 6.9 102230 94
2004-04-14 06:30:19 51°15.478 2°53.903 8.7 351 6.9 102230 94
2004-04-14 06:30:24 51°15.495 2°53.888 8.7 351 6.9 102230 94
2004-04-14 06:30:28 51°15.508 2°53.875 8.5 351 6.9 102230 94
2004-04-14 06:30:33 51°15.524 2°53.859 8.2 352 6.9 102230 94
2004-04-14 06:30:39 51°15.544 2°53.84 8.1 352 6.9 102230 94
2004-04-14 06:30:43 51°15.557 2°53.828 7.9 354 6.9 102230 94
2004-04-14 06:30:49 51°15.577 2°53.809 7.9 353 6.9 102230 94
2004-04-14 06:30:53 51°15.59 2°53.796 8 356 6.9 102220 94
2004-04-14 06:30:59 51°15.61 2°53.778 7.5 356 6.9 102220 94
2004-04-14 06:31:03 51°15.623 2°53.765 7.2 355 6.9 102220 94
2004-04-14 06:31:08 51°15.639 2°53.75 7.6 353 6.9 102220 94
2004-04-14 06:31:13 51°15.656 2°53.734 7.5 355 6.9 102220 94
2004-04-14 06:31:19 51°15.675 2°53.715 7.6 356 6.9 102220 94
2004-04-14 06:31:23 51°15.688 2°53.702 7.4 356 6.9 102230 94
2004-04-14 06:31:29 51°15.708 2°53.683 7.9   6.9 102230 94
2004-04-14 06:31:33 51°15.721 2°53.671 7.3 358 6.9 102230 94
2004-04-14 06:31:39 51°15.741 2°53.652 7.8 355 6.9 102230 94
2004-04-14 06:31:44 51°15.757 2°53.636 7.5 354 6.9 102230 94
2004-04-14 06:31:48 51°15.771 2°53.623 7.6 355 6.9 102230 94
2004-04-14 06:31:53 51°15.787 2°53.607 7.4 355 6.9 102230 94
2004-04-14 06:31:59 51°15.807 2°53.588 7.2 356 6.9 102230 94
2004-04-14 06:32:04 51°15.823 2°53.572 6.9 356 6.9 102230 94
2004-04-14 06:32:08 51°15.836 2°53.56 7.6 356 6.9 102230 94
2004-04-14 06:32:13 51°15.852 2°53.544 7.1 357 6.9 102230 94
2004-04-14 06:32:18 51°15.869 2°53.528 6.9 356 6.9 102230 94
2004-04-14 06:32:24 51°15.889 2°53.509 7.2 356 6.9 102230 94
2004-04-14 06:32:28 51°15.902 2°53.496 6.8 356 6.9 102230 94
2004-04-14 06:32:33 51°15.918 2°53.48 6.8 356 7 102230 94
2004-04-14 06:32:39 51°15.938 2°53.461 7.2 357 7 102230 94
2004-04-14 06:32:43 51°15.952 2°53.449 7 355 7 102230 94
2004-04-14 06:32:48 51°15.968 2°53.433 7.3 357 7 102230 94
2004-04-14 06:32:53 51°15.985 2°53.418 7 358 7 102230 94
2004-04-14 06:32:59 51°16.005 2°53.4 6.6 357 7 102230 94
2004-04-14 06:33:04 51°16.022 2°53.386 6.3 357 7 102230 94
2004-04-14 06:33:09 51°16.039 2°53.373 6.5 358 7 102230 94
2004-04-14 06:33:13 51°16.053 2°53.362 6.6 359 7 102230 94
2004-04-14 06:33:19 51°16.074 2°53.348 6.7 358 7 102230 94
2004-04-14 06:33:23 51°16.088 2°53.338 6.5 359 7 102230 94
2004-04-14 06:33:29 51°16.109 2°53.324 6.5 1 7 102230 94
2004-04-14 06:33:33 51°16.123 2°53.314 6.4 360 7 102230 94
2004-04-14 06:33:38 51°16.141 2°53.303 6.5 359 7 102230 94
2004-04-14 06:33:43 51°16.159 2°53.291 5.9 1 7 102230 94
2004-04-14 06:33:49 51°16.179 2°53.277 6.3 3 7 102230 94
2004-04-14 06:33:53 51°16.193 2°53.267 6.2 1 7 102230 94
2004-04-14 06:33:58 51°16.211 2°53.256 5.9   7 102230 94
2004-04-14 06:34:03 51°16.228 2°53.244 6.2 358 7 102230 94
2004-04-14 06:34:09 51°16.249 2°53.229 6 358 7 102230 94
2004-04-14 06:34:13 51°16.263 2°53.22 5.8 359 7 102230 94
2004-04-14 06:34:19 51°16.284 2°53.206 5.9 358 7 102230 94
2004-04-14 06:34:24 51°16.302 2°53.194 5.7 356 7 102230 94
2004-04-14 06:34:28 51°16.315 2°53.185 6.2 355 7 102230 94
2004-04-14 06:34:33 51°16.333 2°53.173 6.2 355 7 102230 94
2004-04-14 06:34:39 51°16.354 2°53.158 6.2 356 7 102230 94
2004-04-14 06:34:43 51°16.368 2°53.149 6.3 352 7 102230 94
2004-04-14 06:34:49 51°16.388 2°53.134 6 350 7 102230 94
2004-04-14 06:34:53 51°16.402 2°53.125 6.4 351 7 102230 94
2004-04-14 06:34:59 51°16.423 2°53.111 5.9 351 7 102230 94
2004-04-14 06:35:04 51°16.44 2°53.1 6.2 351 7 102230 94
2004-04-14 06:35:08 51°16.455 2°53.09 6.3 350 7 102230 94
2004-04-14 06:35:13 51°16.472 2°53.078 6.5 350 7 102230 94
2004-04-14 06:35:19 51°16.493 2°53.064 6.8 350 7 102230 94
2004-04-14 06:35:24 51°16.51 2°53.052 6.6 348 7 102230 94
2004-04-14 06:35:29 51°16.527 2°53.04 6.8 347 7 102230 94
2004-04-14 06:35:33 51°16.541 2°53.03 6.5 347 7 102230 94
2004-04-14 06:35:39 51°16.562 2°53.016 7.2 344 7 102230 94
2004-04-14 06:35:43 51°16.576 2°53.006 7.4 345 7 102230 94
2004-04-14 06:35:48 51°16.593 2°52.994 7.1 343 7 102230 94
2004-04-14 06:35:53 51°16.611 2°52.982 7.2 344 7 102230 94
2004-04-14 06:35:59 51°16.632 2°52.968 7.3 346 7 102230 94
2004-04-14 06:36:04 51°16.649 2°52.956 7.4 345 7 102230 94
2004-04-14 06:36:09 51°16.666 2°52.944 7.4 345 7 102230 94
2004-04-14 06:36:13 51°16.68 2°52.935 7.3 345 7 102230 94
2004-04-14 06:36:19 51°16.701 2°52.92 7.3 343 7 102230 94
2004-04-14 06:36:23 51°16.715 2°52.911 7.4 345 7.1 102220 94
2004-04-14 06:36:29 51°16.735 2°52.896 7.4 343 7.1 102220 94
2004-04-14 06:36:33 51°16.749 2°52.887 7.5 343 7.1 102230 94
2004-04-14 06:36:39 51°16.77 2°52.874 7.2 345 7.1 102230 94
2004-04-14 06:36:44 51°16.788 2°52.863 7.2 343 7.1 102230 94
2004-04-14 06:36:48 51°16.802 2°52.854 6.7 345 7.1 102230 94
2004-04-14 06:36:53 51°16.819 2°52.844 6.8 345 7.1 102230 94
2004-04-14 06:36:57 51°16.833 2°52.836 7.1 345 7.1 102230 94
2004-04-14 06:37:04 51°16.858 2°52.821 7 344 7.1 102230 94
2004-04-14 06:37:09 51°16.876 2°52.811 7.5 343 7.1 102230 94
2004-04-14 06:37:13 51°16.89 2°52.803 7.1 343 7.1 102230 94
2004-04-14 06:37:19 51°16.911 2°52.791 7.5 346 7.1 102230 94
2004-04-14 06:37:23 51°16.926 2°52.784 7 343 7.1 102230 94
2004-04-14 06:37:28 51°16.944 2°52.776 7.2 345 7.1 102230 94
2004-04-14 06:37:33 51°16.962 2°52.769 7.2 345 7.1 102230 94
2004-04-14 06:37:39 51°16.985 2°52.76 7.3 343 7.1 102230 94
2004-04-14 06:37:43 51°17 2°52.754 7.2 345 7.1 102230 94
2004-04-14 06:37:49 51°17.022 2°52.747 7.3 346 7.1 102230 94
2004-04-14 06:37:53 51°17.037 2°52.741 7.8 345 7.2 102230 94
2004-04-14 06:37:59 51°17.06 2°52.733 7.3 343 7.2 102230 94
2004-04-14 06:38:03 51°17.075 2°52.727 6.7 343 7.2 102230 94
2004-04-14 06:38:08 51°17.093 2°52.72 7.1 347 7.2 102230 94
2004-04-14 06:38:13 51°17.112 2°52.713 7.1 349 7.2 102230 94
2004-04-14 06:38:18 51°17.131 2°52.706 7 345 7.2 102230 94
2004-04-14 06:38:23 51°17.15 2°52.7 6.9 347 7.2 102230 94
2004-04-14 06:38:29 51°17.172 2°52.691 7.1 349 7.2 102230 94
2004-04-14 06:38:33 51°17.187 2°52.686 7.1 350 7.2 102240 94
2004-04-14 06:38:39 51°17.21 2°52.677 7 351 7.2 102240 94
2004-04-14 06:38:43 51°17.225 2°52.673 7.2 347 7.2 102230 94
2004-04-14 06:38:49 51°17.248 2°52.668 7.2 350 7.2 102230 94
2004-04-14 06:38:53 51°17.263 2°52.665 6.9 348 7.2 102230 94
2004-04-14 06:38:59 51°17.286 2°52.662 6.7 351 7.2 102230 94
2004-04-14 06:39:04 51°17.306 2°52.659 7.7 349 7.2 102240 94
2004-04-14 06:39:08 51°17.321 2°52.657 7.2 351 7.2 102240 94
2004-04-14 06:39:13 51°17.34 2°52.654 7.3 349 7.3 102240 94
2004-04-14 06:39:18 51°17.36 2°52.652 6.6 352 7.3 102240 94
2004-04-14 06:39:24 51°17.383 2°52.648 6.9 349 7.3 102240 94
2004-04-14 06:39:29 51°17.402 2°52.646 6.8 350 7.3 102240 94
2004-04-14 06:39:33 51°17.418 2°52.644 6.5 350 7.3 102230 94
2004-04-14 06:39:39 51°17.441 2°52.641 7.1 355 7.3 102230 94
2004-04-14 06:39:43 51°17.457 2°52.638 7 351 7.3 102230 94
2004-04-14 06:39:49 51°17.48 2°52.635 6.8 349 7.3 102230 94
2004-04-14 06:39:53 51°17.495 2°52.632 6.6 355 7.3 102240 94
2004-04-14 06:39:59 51°17.519 2°52.629 6.6 352 7.3 102240 94
2004-04-14 06:40:03 51°17.534 2°52.627 6.6 352 7.3 102240 94
2004-04-14 06:40:09 51°17.558 2°52.623 6.3 352 7.3 102240 94
2004-04-14 06:40:13 51°17.573 2°52.621 6.7 348 7.3 102230 94
2004-04-14 06:40:19 51°17.596 2°52.617 6.6 351 7.3 102230 94
2004-04-14 06:40:23 51°17.612 2°52.615 6.8 351 7.3 102240 94
2004-04-14 06:40:28 51°17.631 2°52.612 6.7 355 7.3 102240 94
2004-04-14 06:40:33 51°17.65 2°52.609 6.5 350 7.4 102230 94
2004-04-14 06:40:39 51°17.673 2°52.605 6.9 352 7.4 102230 94
2004-04-14 06:40:43 51°17.689 2°52.603 6.7 355 7.4 102230 94
2004-04-14 06:40:49 51°17.712 2°52.6 6.4 353 7.4 102230 94
2004-04-14 06:40:53 51°17.728 2°52.597 6.5 353 7.4 102230 94
2004-04-14 06:40:59 51°17.751 2°52.594 6.1 353 7.4 102230 94
2004-04-14 06:41:03 51°17.767 2°52.591 6.2 355 7.4 102230 94
2004-04-14 06:41:09 51°17.79 2°52.587 6.2 352 7.4 102230 94
2004-04-14 06:41:13 51°17.805 2°52.585 5.8 356 7.4 102230 94
2004-04-14 06:41:19 51°17.829 2°52.581 5.8 354 7.4 102230 94
2004-04-14 06:41:23 51°17.844 2°52.579 6.2 358 7.4 102230 94
2004-04-14 06:41:28 51°17.863 2°52.576 6.3 354 7.4 102230 94
2004-04-14 06:41:33 51°17.883 2°52.573 6.1 355 7.4 102230 94
2004-04-14 06:41:38 51°17.902 2°52.569 6.4 356 7.4 102230 94
2004-04-14 06:41:44 51°17.925 2°52.565 6.3 356 7.4 102230 94
2004-04-14 06:41:49 51°17.945 2°52.562 6.3 353 7.4 102230 94
2004-04-14 06:41:53 51°17.96 2°52.559 5.9 354 7.4 102240 94
2004-04-14 06:41:59 51°17.984 2°52.555 5.6 355 7.4 102240 94
2004-04-14 06:42:04 51°18.003 2°52.552 5.8 358 7.5 102240 94
2004-04-14 06:42:08 51°18.018 2°52.549 5.8 2 7.5 102240 94
2004-04-14 06:42:13 51°18.038 2°52.546 5.9 352 7.4 102230 94
2004-04-14 06:42:19 51°18.061 2°52.542 5.6 356 7.4 102230 94
2004-04-14 06:42:24 51°18.081 2°52.538 5.9 354 7.5 102230 94
2004-04-14 06:42:29 51°18.1 2°52.535 5.7 355 7.5 102230 94
2004-04-14 06:42:33 51°18.116 2°52.532 5.6 353 7.4 102230 94
2004-04-14 06:42:39 51°18.139 2°52.529 5.9 354 7.4 102230 94
2004-04-14 06:42:43 51°18.154 2°52.526 5.5 356 7.5 102230 94
2004-04-14 06:42:48 51°18.174 2°52.523 5.8 356 7.5 102230 94
2004-04-14 06:42:53 51°18.193 2°52.519 6 356 7.5 102230 94
2004-04-14 06:42:59 51°18.216 2°52.516 5.7 358 7.5 102230 94
2004-04-14 06:43:03 51°18.232 2°52.514 5.8 354 7.5 102230 94
2004-04-14 06:43:09 51°18.255 2°52.512 5.9 357 7.5 102230 94
2004-04-14 06:43:13 51°18.271 2°52.51 5.7 354 7.4 102240 94
2004-04-14 06:43:19 51°18.295 2°52.507 5.7 355 7.4 102240 94
2004-04-14 06:43:23 51°18.31 2°52.505 5.8 355 7.5 102230 94
2004-04-14 06:43:28 51°18.33 2°52.503 5.6 357 7.5 102230 94
2004-04-14 06:43:33 51°18.349 2°52.5 5.4 357 7.5 102240 94
2004-04-14 06:43:39 51°18.372 2°52.498 5.2 356 7.5 102240 94
2004-04-14 06:43:43 51°18.388 2°52.496 5.4 359 7.5 102230 94
2004-04-14 06:43:48 51°18.407 2°52.494 5.6 359 7.5 102230 94
2004-04-14 06:43:53 51°18.426 2°52.491 5.8 359 7.5 102230 94
2004-04-14 06:43:59 51°18.45 2°52.489 5.4 357 7.5 102230 94
2004-04-14 06:44:03 51°18.466 2°52.487 5.5 354 7.5 102230 94
2004-04-14 06:44:08 51°18.485 2°52.485 5.6 356 7.5 102230 94
2004-04-14 06:44:13 51°18.504 2°52.482 5.6 354 7.5 102240 94
2004-04-14 06:44:19 51°18.528 2°52.479 5.8 354 7.5 102240 94
2004-04-14 06:44:23 51°18.543 2°52.478 6.1 354 7.5 102230 94
2004-04-14 06:44:29 51°18.567 2°52.474 5.7 354 7.5 102230 94
2004-04-14 06:44:33 51°18.582 2°52.473 5.5 356 7.5 102230 94
2004-04-14 06:44:39 51°18.605 2°52.47 5.4 355 7.5 102230 94
2004-04-14 06:44:43 51°18.621 2°52.468 5.7 358 7.5 102230 94
2004-04-14 06:44:48 51°18.64 2°52.465 5.5 357 7.5 102230 94
2004-04-14 06:44:53 51°18.66 2°52.463 5.6 356 7.5 102230 94
2004-04-14 06:44:59 51°18.683 2°52.46 5.8 357 7.5 102230 94
2004-04-14 06:45:03 51°18.698 2°52.458 5.7 354 7.5 102240 94
2004-04-14 06:45:08 51°18.718 2°52.455 6.2 358 7.5 102240 94
2004-04-14 06:45:13 51°18.737 2°52.453 5.8 357 7.5 102230 94
2004-04-14 06:45:19 51°18.76 2°52.451 6.1 359 7.5 102230 94
2004-04-14 06:45:23 51°18.776 2°52.449 6.1 356 7.5 102230 94
2004-04-14 06:45:29 51°18.799 2°52.446 6.1 355 7.5 102230 94
2004-04-14 06:45:33 51°18.815 2°52.444 6.2 353 7.5 102240 94
2004-04-14 06:45:39 51°18.838 2°52.441 5.5 354 7.5 102240 94
2004-04-14 06:45:43 51°18.854 2°52.439 5.6 355 7.5 102240 94
2004-04-14 06:45:49 51°18.877 2°52.436 6 353 7.5 102240 94
2004-04-14 06:45:53 51°18.892 2°52.434 6.1 353 7.5 102230 94
2004-04-14 06:45:59 51°18.916 2°52.431 6.4 355 7.5 102230 94
2004-04-14 06:46:03 51°18.931 2°52.429 6.4 355 7.5 102230 94
2004-04-14 06:46:08 51°18.95 2°52.427 6.3 356 7.5 102230 94
2004-04-14 06:46:13 51°18.969 2°52.425 6.3 354 7.5 102240 94
2004-04-14 06:46:19 51°18.991 2°52.422 6.7 354 7.5 102240 94
2004-04-14 06:46:23 51°19.006 2°52.421 6.6 354 7.5 102240 94
2004-04-14 06:46:28 51°19.025 2°52.419 6.7 356 7.5 102240 94
2004-04-14 06:46:33 51°19.046 2°52.416 6.5 355 7.5 102240 94
2004-04-14 06:46:39 51°19.07 2°52.414 6.5 355 7.5 102240 94
2004-04-14 06:46:43 51°19.086 2°52.413 6.8 352 7.5 102240 94
2004-04-14 06:46:48 51°19.106 2°52.412 6.6 354 7.5 102240 94
2004-04-14 06:46:53 51°19.126 2°52.412 6.4 353 7.5 102240 94
2004-04-14 06:46:59 51°19.149 2°52.414 6.4 352 7.5 102240 94
2004-04-14 06:47:03 51°19.165 2°52.415 6.7 351 7.5 102230 94
2004-04-14 06:47:09 51°19.188 2°52.417 6.2 353 7.5 102230 94
2004-04-14 06:47:13 51°19.204 2°52.419 6.8 355 7.6 102240 94
2004-04-14 06:47:19 51°19.228 2°52.422 7 353 7.6 102240 94
2004-04-14 06:47:23 51°19.244 2°52.424 6.6 351 7.6 102240 94
2004-04-14 06:47:29 51°19.267 2°52.428 6.5 348 7.6 102240 94
2004-04-14 06:47:33 51°19.283 2°52.43 6.2 350 7.6 102230 94
2004-04-14 06:47:39 51°19.306 2°52.434 6.3 352 7.6 102230 94
2004-04-14 06:47:44 51°19.326 2°52.438 6.2 350 7.6 102240 94
2004-04-14 06:47:49 51°19.346 2°52.442 6.3 355 7.6 102240 94
2004-04-14 06:47:53 51°19.361 2°52.445 6.6 351 7.6 102230 94
2004-04-14 06:47:59 51°19.385 2°52.451 6.3 349 7.6 102230 94
2004-04-14 06:48:04 51°19.404 2°52.457 6.2 351 7.6 102240 94
2004-04-14 06:48:09 51°19.424 2°52.462 6.1 354 7.6 102240 94
2004-04-14 06:48:13 51°19.439 2°52.467 6.3 352 7.6 102240 94
2004-04-14 06:48:19 51°19.463 2°52.475 6.2 354 7.6 102240 94
2004-04-14 06:48:23 51°19.478 2°52.48 6.2 351 7.6 102240 94
2004-04-14 06:48:29 51°19.501 2°52.488 5.8 352 7.6 102240 94
2004-04-14 06:48:33 51°19.517 2°52.493 5.9 350 7.6 102240 94
2004-04-14 06:48:39 51°19.54 2°52.502 6 352 7.6 102240 94
2004-04-14 06:48:43 51°19.555 2°52.509 5.9 351 7.6 102240 94
2004-04-14 06:48:49 51°19.578 2°52.52 5.9 355 7.6 102240 94
2004-04-14 06:48:53 51°19.593 2°52.528 6 352 7.6 102240 94
2004-04-14 06:48:59 51°19.616 2°52.54 5.9 351 7.6 102240 94
2004-04-14 06:49:04 51°19.635 2°52.551 5.8 352 7.6 102240 93
2004-04-14 06:49:08 51°19.65 2°52.56 6.1 350 7.6 102240 93
2004-04-14 06:49:13 51°19.668 2°52.571 5.4 356 7.6 102240 93
2004-04-14 06:49:19 51°19.691 2°52.585 5.7 351 7.6 102240 93
2004-04-14 06:49:23 51°19.706 2°52.594 5.9 353 7.7 102240 93
2004-04-14 06:49:29 51°19.728 2°52.607 5.2 352 7.7 102240 93
2004-04-14 06:49:33 51°19.743 2°52.616 5.6 350 7.7 102240 93
2004-04-14 06:49:39 51°19.766 2°52.629 5.3 353 7.7 102240 93
2004-04-14 06:49:43 51°19.781 2°52.638 5.5 352 7.7 102240 93
2004-04-14 06:49:49 51°19.803 2°52.652 5.4 354 7.7 102240 93
2004-04-14 06:49:53 51°19.818 2°52.661 5.2 353 7.7 102240 93
2004-04-14 06:49:59 51°19.841 2°52.674 5.1 354 7.7 102240 93
2004-04-14 06:50:04 51°19.86 2°52.685 5.6 354 7.7 102240 93
2004-04-14 06:50:09 51°19.878 2°52.696 5.2 354 7.7 102240 93
2004-04-14 06:50:13 51°19.893 2°52.705 5.3 354 7.7 102240 93
2004-04-14 06:50:19 51°19.916 2°52.718 5.2 352 7.7 102240 93
2004-04-14 06:50:24 51°19.935 2°52.729 5.3 352 7.7 102240 93
2004-04-14 06:50:29 51°19.953 2°52.74 5 353 7.7 102240 93
2004-04-14 06:50:33 51°19.969 2°52.749 5.2 354 7.7 102240 93
2004-04-14 06:50:39 51°19.991 2°52.762 5.1 355 7.7 102240 93
2004-04-14 06:50:43 51°20.006 2°52.771 5.1 356 7.7 102240 93
2004-04-14 06:50:49 51°20.029 2°52.784 5.5 350 7.7 102240 93
2004-04-14 06:50:53 51°20.044 2°52.793 5.5 356 7.7 102230 93
2004-04-14 06:50:59 51°20.067 2°52.806 5.4 351 7.7 102230 93
2004-04-14 06:51:04 51°20.085 2°52.816 5.1 355 7.7 102240 93
2004-04-14 06:51:09 51°20.104 2°52.827 5.2 351 7.7 102240 93
2004-04-14 06:51:13 51°20.119 2°52.836 5.4 354 7.7 102240 93
2004-04-14 06:51:19 51°20.142 2°52.849 5.1 351 7.7 102240 93
2004-04-14 06:51:24 51°20.161 2°52.86 5.3 354 7.7 102230 93
2004-04-14 06:51:28 51°20.176 2°52.868 5.3 352 7.7 102230 93
2004-04-14 06:51:33 51°20.195 2°52.879 5.4 353 7.7 102240 93
2004-04-14 06:51:39 51°20.218 2°52.892 5.3 357 7.7 102240 93
2004-04-14 06:51:44 51°20.237 2°52.902 5.1 352 7.7 102240 93
2004-04-14 06:51:49 51°20.256 2°52.913 5.3 355 7.7 102240 93
2004-04-14 06:51:53 51°20.271 2°52.923 5.5 354 7.7 102240 93
2004-04-14 06:51:59 51°20.293 2°52.937 5.4 354 7.7 102240 93
2004-04-14 06:52:04 51°20.312 2°52.949 5.3 354 7.7 102240 93
2004-04-14 06:52:08 51°20.326 2°52.959 5.4 355 7.7 102240 93
2004-04-14 06:52:13 51°20.345 2°52.971 5.6 355 7.8 102240 93
2004-04-14 06:52:19 51°20.367 2°52.986 5.1 354 7.8 102240 93
2004-04-14 06:52:24 51°20.386 2°52.999 5.2 355 7.8 102230 93
2004-04-14 06:52:28 51°20.4 2°53.009 5.2 352 7.8 102230 93
2004-04-14 06:52:33 51°20.419 2°53.021 5.6 355 7.8 102240 93
2004-04-14 06:52:39 51°20.441 2°53.036 5.2 356 7.8 102240 93
2004-04-14 06:52:43 51°20.456 2°53.046 5 355 7.8 102240 93
2004-04-14 06:52:48 51°20.474 2°53.059 5.3 357 7.8 102240 93
2004-04-14 06:52:53 51°20.493 2°53.073 5.1 357 7.8 102240 93
2004-04-14 06:52:59 51°20.514 2°53.089 5.1 358 7.8 102240 93
2004-04-14 06:53:03 51°20.529 2°53.1 5.1 357 7.8 102230 93
2004-04-14 06:53:09 51°20.551 2°53.116 5.2 352 7.8 102230 93
2004-04-14 06:53:13 51°20.565 2°53.126 4.8 353 7.8 102240 93
2004-04-14 06:53:19 51°20.587 2°53.142 5.4 352 7.8 102240 93
2004-04-14 06:53:23 51°20.602 2°53.153 4.9 353 7.8 102240 93
2004-04-14 06:53:28 51°20.62 2°53.167 5.5 355 7.8 102240 93
2004-04-14 06:53:33 51°20.638 2°53.18 5.4 354 7.8 102240 93
2004-04-14 06:53:39 51°20.66 2°53.197 5 354 7.8 102240 93
2004-04-14 06:53:43 51°20.674 2°53.207 5.1 358 7.8 102240 93
2004-04-14 06:53:48 51°20.692 2°53.221 5.4 357 7.8 102240 93
2004-04-14 06:53:53 51°20.711 2°53.234 5.1 354 7.8 102240 93
2004-04-14 06:53:59 51°20.733 2°53.25 5.3 354 7.8 102240 93
2004-04-14 06:54:04 51°20.751 2°53.263 5.3 354 7.9 102240 93
2004-04-14 06:54:08 51°20.765 2°53.274 5 356 7.9 102240 93
2004-04-14 06:54:13 51°20.784 2°53.287 5.4 354 7.9 102240 93
2004-04-14 06:54:19 51°20.805 2°53.303 5.2 352 7.9 102240 93
2004-04-14 06:54:23 51°20.82 2°53.314 5.3 353 7.9 102240 92
2004-04-14 06:54:28 51°20.838 2°53.327 5.6 355 7.9 102240 92
2004-04-14 06:54:33 51°20.856 2°53.34 5.2 355 7.9 102240 92
2004-04-14 06:54:39 51°20.878 2°53.356 5.3 354 7.9 102240 92
2004-04-14 06:54:44 51°20.897 2°53.369 5.5 357 7.9 102240 92
2004-04-14 06:54:49 51°20.915 2°53.382 4.9 354 7.9 102240 92
2004-04-14 06:54:53 51°20.929 2°53.392 5.1 358 7.9 102240 92
2004-04-14 06:54:59 51°20.951 2°53.408 5.6 354 7.9 102240 92
2004-04-14 06:55:04 51°20.969 2°53.421 5.4 357 7.9 102240 92
2004-04-14 06:55:08 51°20.984 2°53.432 5.1 356 7.9 102240 92
2004-04-14 06:55:13 51°21.002 2°53.445 5.1 358 7.9 102230 92
2004-04-14 06:55:19 51°21.024 2°53.461 5.2 358 7.9 102230 92
2004-04-14 06:55:24 51°21.042 2°53.474 5.6 358 7.9 102240 92
2004-04-14 06:55:29 51°21.06 2°53.487 5.4 358 7.9 102240 92
2004-04-14 06:55:33 51°21.075 2°53.498 5.2 357 7.9 102240 92
2004-04-14 06:55:39 51°21.096 2°53.514 5.2 357 7.9 102240 92
2004-04-14 06:55:43 51°21.111 2°53.525 5 358 7.9 102250 92
2004-04-14 06:55:49 51°21.133 2°53.541 4.9 357 7.9 102250 92
2004-04-14 06:55:53 51°21.148 2°53.551 4.9   7.9 102240 92
2004-04-14 06:55:59 51°21.17 2°53.566 5.1 1 7.9 102240 92
2004-04-14 06:56:03 51°21.184 2°53.578 5 359 7.9 102240 92
2004-04-14 06:56:09 51°21.206 2°53.593 5   7.9 102240 92
2004-04-14 06:56:13 51°21.221 2°53.604 5 358 7.9 102240 92
2004-04-14 06:56:19 51°21.243 2°53.62 5.3 357 7.9 102240 92
2004-04-14 06:56:24 51°21.261 2°53.633 5.3 357 7.9 102240 92
2004-04-14 06:56:29 51°21.279 2°53.647 4.9   7.9 102240 92
2004-04-14 06:56:33 51°21.294 2°53.657 5 358 7.9 102240 92
2004-04-14 06:56:39 51°21.315 2°53.674 5.4 355 7.9 102240 92
2004-04-14 06:56:44 51°21.334 2°53.687 5.2 357 7.9 102240 92
2004-04-14 06:56:49 51°21.352 2°53.7 5.1 358 7.9 102240 92
2004-04-14 06:56:53 51°21.367 2°53.711 5 357 7.9 102240 92
2004-04-14 06:56:58 51°21.385 2°53.725 5.6 358 7.9 102240 92
2004-04-14 06:57:04 51°21.407 2°53.742 5.3 355 8 102240 92
2004-04-14 06:57:09 51°21.425 2°53.755 5.2 356 8 102240 92
2004-04-14 06:57:13 51°21.439 2°53.766 5.2 358 8 102250 92
2004-04-14 06:57:19 51°21.461 2°53.783 4.9 356 8 102250 92
2004-04-14 06:57:23 51°21.476 2°53.793 4.9 358 8 102240 92
2004-04-14 06:57:28 51°21.494 2°53.807 5.4 359 8 102240 92
2004-04-14 06:57:33 51°21.512 2°53.82 5.2 356 8 102240 92
2004-04-14 06:57:39 51°21.534 2°53.836 5.1 358 8 102240 92
2004-04-14 06:57:43 51°21.548 2°53.847 4.9 358 8 102240 92
2004-04-14 06:57:48 51°21.566 2°53.86 5 356 8 102240 92
2004-04-14 06:57:53 51°21.585 2°53.874 5 356 8 102240 92
2004-04-14 06:57:59 51°21.607 2°53.89 5.1 356 8 102240 92
2004-04-14 06:58:03 51°21.621 2°53.901 5 358 8 102230 92
2004-04-14 06:58:09 51°21.643 2°53.917 5.1 355 8 102230 92
2004-04-14 06:58:14 51°21.661 2°53.931 5 2 8 102250 91
2004-04-14 06:58:19 51°21.68 2°53.944 4.8 357 8 102250 91
2004-04-14 06:58:23 51°21.694 2°53.955 5.3 359 8 102240 91
2004-04-14 06:58:28 51°21.712 2°53.969 5.1 2 8 102240 91
2004-04-14 06:58:33 51°21.73 2°53.982 5.2 3 8 102240 91
2004-04-14 06:58:39 51°21.752 2°53.999 4.9 3 8 102240 91
2004-04-14 06:58:44 51°21.77 2°54.012 5.1 2 8 102240 91
2004-04-14 06:58:49 51°21.789 2°54.026 5.3 5 8 102240 91
2004-04-14 06:58:53 51°21.803 2°54.036 5.6 353 8 102240 91
2004-04-14 06:58:58 51°21.821 2°54.05 5 356 8 102240 91
2004-04-14 06:59:04 51°21.843 2°54.066 5.3 1 8.1 102240 91
2004-04-14 06:59:09 51°21.861 2°54.08 5.4 360 8.1 102240 91
2004-04-14 06:59:13 51°21.876 2°54.091 5.3 1 8.1 102240 91
2004-04-14 06:59:18 51°21.894 2°54.104 5.3 2 8.1 102240 91
2004-04-14 06:59:23 51°21.912 2°54.117 5.5 1 8.1 102240 91
2004-04-14 06:59:28 51°21.93 2°54.131 5.1 2 8.1 102240 91
2004-04-14 06:59:33 51°21.949 2°54.144 5.4 1 8.1 102240 91
2004-04-14 06:59:38 51°21.967 2°54.158 5 2 8.1 102240 91
2004-04-14 06:59:44 51°21.989 2°54.174 5 2 8.1 102240 91
2004-04-14 06:59:49 51°22.006 2°54.188 5.3 1 8.1 102240 91
2004-04-14 06:59:53 51°22.021 2°54.198 5.6 2 8.1 102240 91
2004-04-14 06:59:59 51°22.043 2°54.215 5.2 1 8.1 102240 91
2004-04-14 07:00:03 51°22.058 2°54.226 5.2 2 8.1 102240 91
2004-04-14 07:00:09 51°22.079 2°54.242 5.2 1 8.1 102240 91
2004-04-14 07:00:13 51°22.094 2°54.253 5.1 3 8.1 102240 91
2004-04-14 07:00:18 51°22.112 2°54.267 4.7 1 8.1 102240 91
2004-04-14 07:00:23 51°22.131 2°54.28 4.9 4 8.1 102240 91
2004-04-14 07:00:29 51°22.153 2°54.296 5.1 3 8.1 102240 91
2004-04-14 07:00:33 51°22.167 2°54.307 5 7 8.1 102240 91
2004-04-14 07:00:38 51°22.186 2°54.32 4.9 5 8.1 102240 91
2004-04-14 07:00:43 51°22.204 2°54.333 5.1 6 8.1 102230 91
2004-04-14 07:00:48 51°22.222 2°54.346 4.8 5 8.1 102230 91
2004-04-14 07:00:53 51°22.24 2°54.36 5 5 8.1 102240 91
2004-04-14 07:00:59 51°22.262 2°54.375 5.4 1 8.1 102240 91
2004-04-14 07:01:03 51°22.277 2°54.386 5.5 3 8.1 102240 91
2004-04-14 07:01:08 51°22.295 2°54.4 4.8 1 8.1 102240 91
2004-04-14 07:01:13 51°22.313 2°54.413 4.8 3 8.1 102230 91
2004-04-14 07:01:19 51°22.335 2°54.429 5 4 8.1 102230 91
2004-04-14 07:01:23 51°22.349 2°54.44 5 3 8.1 102240 91
2004-04-14 07:01:29 51°22.371 2°54.456 5 1 8.1 102240 91
2004-04-14 07:01:33 51°22.386 2°54.467 5.2 6 8.1 102240 91
2004-04-14 07:01:39 51°22.408 2°54.483 5.1 4 8.1 102240 91
2004-04-14 07:01:43 51°22.422 2°54.494 5.2 4 8.2 102240 91
2004-04-14 07:01:48 51°22.44 2°54.507 4.8 6 8.2 102240 91
2004-04-14 07:01:53 51°22.458 2°54.521 5 8 8.1 102240 90
2004-04-14 07:01:59 51°22.48 2°54.537 4.7 6 8.1 102240 90
2004-04-14 07:02:03 51°22.494 2°54.548 4.9 6 8.2 102240 90
2004-04-14 07:02:09 51°22.516 2°54.564 4.6 7 8.2 102240 90
2004-04-14 07:02:13 51°22.53 2°54.576 4.6 4 8.2 102240 90
2004-04-14 07:02:19 51°22.552 2°54.591 4.8 4 8.2 102240 90
2004-04-14 07:02:23 51°22.567 2°54.603 4.7 4 8.2 102240 90
2004-04-14 07:02:28 51°22.585 2°54.616 4.7 3 8.2 102240 90
2004-04-14 07:02:33 51°22.603 2°54.63 4.7 2 8.2 102240 90
2004-04-14 07:02:39 51°22.625 2°54.646 4.8 6 8.2 102240 90
2004-04-14 07:02:43 51°22.639 2°54.657 4.5 6 8.2 102240 90
2004-04-14 07:02:49 51°22.661 2°54.673 4.5 7 8.2 102240 90
2004-04-14 07:02:53 51°22.676 2°54.683 4.5 8 8.1 102240 90
2004-04-14 07:02:59 51°22.698 2°54.7 4.4 3 8.1 102240 90
2004-04-14 07:03:03 51°22.712 2°54.711 4.7 3 8.1 102230 90
2004-04-14 07:03:09 51°22.734 2°54.727 4.7 1 8.1 102230 90
2004-04-14 07:03:13 51°22.749 2°54.738 4.9 5 8.2 102240 90
2004-04-14 07:03:19 51°22.771 2°54.754 5.4 7 8.2 102240 90
2004-04-14 07:03:24 51°22.789 2°54.768 5.2 3 8.2 102240 90
2004-04-14 07:03:29 51°22.807 2°54.781 5.2 11 8.2 102240 90
2004-04-14 07:03:33 51°22.822 2°54.791 5.1 12 8.2 102240 90
2004-04-14 07:03:38 51°22.84 2°54.805 4.7 7 8.2 102240 90
2004-04-14 07:03:43 51°22.859 2°54.819 4.6 8 8.2 102240 90
2004-04-14 07:03:49 51°22.88 2°54.834 4.9 6 8.2 102240 90
2004-04-14 07:03:53 51°22.895 2°54.845 4.9 8 8.2 102240 90
2004-04-14 07:03:59 51°22.917 2°54.86 5 7 8.2 102240 90
2004-04-14 07:04:03 51°22.931 2°54.871 4.7 10 8.2 102240 90
2004-04-14 07:04:09 51°22.953 2°54.887 4.7 7 8.2 102240 90
2004-04-14 07:04:13 51°22.967 2°54.898 4.5 9 8.2 102230 90
2004-04-14 07:04:19 51°22.989 2°54.914 5.2 7 8.2 102230 90
2004-04-14 07:04:24 51°23.007 2°54.928 5.2 8 8.2 102240 90
2004-04-14 07:04:29 51°23.025 2°54.941 4.7 8 8.2 102240 90
2004-04-14 07:04:33 51°23.04 2°54.951 4.9 12 8.2 102240 90
2004-04-14 07:04:38 51°23.058 2°54.964 5.1 13 8.2 102240 90
2004-04-14 07:04:43 51°23.077 2°54.978 5.3 10 8.2 102240 90
2004-04-14 07:04:49 51°23.099 2°54.993 5.3 11 8.2 102240 90
2004-04-14 07:04:53 51°23.113 2°55.004 5.3 11 8.2 102240 90
2004-04-14 07:04:59 51°23.136 2°55.02 5.4 10 8.2 102240 90
2004-04-14 07:05:03 51°23.15 2°55.03 5.6 11 8.2 102240 90
2004-04-14 07:05:08 51°23.169 2°55.044 5.5 14 8.2 102240 90
2004-04-14 07:05:13 51°23.187 2°55.057 5 10 8.2 102240 90
2004-04-14 07:05:18 51°23.205 2°55.07 5.4 13 8.2 102240 90
2004-04-14 07:05:23 51°23.224 2°55.083 5.3 10 8.3 102240 90
2004-04-14 07:05:28 51°23.242 2°55.096 5.6 12 8.3 102240 90
2004-04-14 07:05:33 51°23.26 2°55.109 5.7 12 8.3 102240 90
2004-04-14 07:05:39 51°23.283 2°55.125 5.8 11 8.3 102240 90
2004-04-14 07:05:43 51°23.297 2°55.135 5.9 12 8.3 102240 90
2004-04-14 07:05:48 51°23.316 2°55.149 5.5 10 8.3 102240 90
2004-04-14 07:05:53 51°23.334 2°55.162 5.6 8 8.3 102240 90
2004-04-14 07:05:59 51°23.356 2°55.178 5.6 8 8.3 102240 90
2004-04-14 07:06:03 51°23.371 2°55.188 5.6 10 8.3 102240 90
2004-04-14 07:06:09 51°23.393 2°55.205 5.3 10 8.3 102240 90
2004-04-14 07:06:13 51°23.408 2°55.215 5.8 11 8.3 102240 90
2004-04-14 07:06:18 51°23.426 2°55.228 5.4 10 8.3 102240 90
2004-04-14 07:06:23 51°23.444 2°55.241 5.4 13 8.3 102240 90
2004-04-14 07:06:29 51°23.466 2°55.257 5.4 9 8.3 102240 90
2004-04-14 07:06:33 51°23.481 2°55.268 5.7 13 8.3 102240 90
2004-04-14 07:06:39 51°23.503 2°55.283 5.2 13 8.3 102240 90
2004-04-14 07:06:43 51°23.518 2°55.294 5.5 10 8.3 102240 89
2004-04-14 07:06:49 51°23.54 2°55.31 5.2 14 8.3 102240 89
2004-04-14 07:06:53 51°23.555 2°55.321 5.3 12 8.3 102240 89
2004-04-14 07:06:59 51°23.576 2°55.337 5.9 12 8.3 102240 89
2004-04-14 07:07:03 51°23.591 2°55.347 5.2 12 8.3 102240 89
2004-04-14 07:07:09 51°23.613 2°55.364 5.3 10 8.3 102240 89
2004-04-14 07:07:13 51°23.628 2°55.374 5.7 13 8.2 102240 89
2004-04-14 07:07:19 51°23.65 2°55.39 5.6 12 8.2 102240 89
2004-04-14 07:07:23 51°23.665 2°55.4 5.3 8 8.3 102240 89
2004-04-14 07:07:29 51°23.687 2°55.416 5.3 8 8.3 102240 89
2004-04-14 07:07:33 51°23.701 2°55.427 5.2 9 8.2 102240 89
2004-04-14 07:07:38 51°23.72 2°55.44 5.5 8 8.2 102240 89
2004-04-14 07:07:43 51°23.738 2°55.453 5.5 7 8.3 102240 89
2004-04-14 07:07:49 51°23.76 2°55.469 5.2 12 8.3 102240 89
2004-04-14 07:07:53 51°23.775 2°55.48 5.7 11 8.2 102240 89
2004-04-14 07:07:59 51°23.797 2°55.496 5.2 11 8.2 102240 89
2004-04-14 07:08:03 51°23.812 2°55.506 5.6 11 8.2 102240 89
2004-04-14 07:08:09 51°23.834 2°55.522 5.4 11 8.2 102240 89
2004-04-14 07:08:13 51°23.849 2°55.534 5.6 8 8.2 102240 89
2004-04-14 07:08:19 51°23.87 2°55.551 5.2 12 8.2 102240 89
2004-04-14 07:08:23 51°23.885 2°55.562 5.6 7 8.2 102240 89
2004-04-14 07:08:29 51°23.907 2°55.579 5.1 5 8.2 102240 89
2004-04-14 07:08:33 51°23.922 2°55.59 5.5 9 8.2 102240 89
2004-04-14 07:08:39 51°23.944 2°55.607 5.8 11 8.2 102240 89
2004-04-14 07:08:43 51°23.958 2°55.618 5.6 8 8.2 102240 89
2004-04-14 07:08:48 51°23.977 2°55.632 5.9 12 8.2 102240 89
2004-04-14 07:08:53 51°23.995 2°55.646 5.8 11 8.2 102240 89
2004-04-14 07:08:58 51°24.014 2°55.659 5.6 9 8.2 102240 89
2004-04-14 07:09:03 51°24.032 2°55.673 5.5 12 8.2 102240 89
2004-04-14 07:09:09 51°24.054 2°55.69 5.3 10 8.2 102240 89
2004-04-14 07:09:13 51°24.069 2°55.701 5.4 10 8.2 102250 89
2004-04-14 07:09:17 51°24.084 2°55.712 5.3 11 8.2 102250 89
2004-04-14 07:09:23 51°24.106 2°55.729 5.4 9 8.2 102240 89
2004-04-14 07:09:28 51°24.125 2°55.743 5.8 10 8.2 102240 89
2004-04-14 07:09:33 51°24.143 2°55.757 5.7 5 8.2 102250 89
2004-04-14 07:09:37 51°24.158 2°55.768 5.8 8 8.2 102250 89
2004-04-14 07:09:43 51°24.18 2°55.785 5.3 6 8.2 102250 89
2004-04-14 07:09:48 51°24.199 2°55.798 5.4 8 8.2 102250 89
2004-04-14 07:09:53 51°24.217 2°55.813 5.6 5 8.2 102250 89
2004-04-14 07:09:59 51°24.239 2°55.83 5.3 7 8.2 102250 89
2004-04-14 07:10:03 51°24.254 2°55.841 5.5 5 8.2 102250 89
2004-04-14 07:10:09 51°24.277 2°55.858 5.7 4 8.2 102250 89
2004-04-14 07:10:13 51°24.292 2°55.869 5.8 3 8.2 102250 89
2004-04-14 07:10:19 51°24.314 2°55.886 5.5 7 8.2 102250 89
2004-04-14 07:10:23 51°24.329 2°55.897 5.3 7 8.2 102250 89
2004-04-14 07:10:28 51°24.347 2°55.911 5.6 6 8.2 102250 89
2004-04-14 07:10:33 51°24.365 2°55.926 5.8 3 8.2 102250 89
2004-04-14 07:10:39 51°24.387 2°55.945 5.4 4 8.2 102250 89
2004-04-14 07:10:43 51°24.401 2°55.958 5.6 2 8.2 102240 89
2004-04-14 07:10:49 51°24.422 2°55.978 5.6 2 8.2 102240 89
2004-04-14 07:10:53 51°24.437 2°55.991 6 6 8.2 102250 89
2004-04-14 07:10:59 51°24.458 2°56.011 5.9 8 8.2 102250 89
2004-04-14 07:11:03 51°24.472 2°56.024 6 4 8.2 102250 89
2004-04-14 07:11:08 51°24.49 2°56.041 5.5 7 8.2 102250 89
2004-04-14 07:11:13 51°24.507 2°56.058 5.4 4 8.2 102250 89
2004-04-14 07:11:19 51°24.528 2°56.078 5.6 3 8.2 102250 89
2004-04-14 07:11:23 51°24.542 2°56.091 5.7 4 8.2 102250 89
2004-04-14 07:11:29 51°24.564 2°56.112 5.9 4 8.2 102250 89
2004-04-14 07:11:33 51°24.578 2°56.125 6.3 2 8.2 102240 89
2004-04-14 07:11:37 51°24.592 2°56.138 5.5 5 8.2 102240 89
2004-04-14 07:11:43 51°24.613 2°56.158 5.6 4 8.2 102250 89
2004-04-14 07:11:48 51°24.63 2°56.175 6 1 8.2 102250 89
2004-04-14 07:11:53 51°24.648 2°56.192 6 2 8.2 102250 89
2004-04-14 07:11:59 51°24.669 2°56.212 5.2 4 8.2 102250 89
2004-04-14 07:12:04 51°24.686 2°56.229 5.3 5 8.2 102240 89
2004-04-14 07:12:08 51°24.7 2°56.243 5.9 4 8.2 102240 89
2004-04-14 07:12:13 51°24.718 2°56.26 6 1 8.2 102250 89
2004-04-14 07:12:19 51°24.739 2°56.28 6 2 8.2 102250 89
2004-04-14 07:12:23 51°24.753 2°56.293 5.7 1 8.2 102250 89
2004-04-14 07:12:28 51°24.771 2°56.31 5.6 3 8.2 102250 89
2004-04-14 07:12:33 51°24.789 2°56.327 5.4 359 8.2 102250 89
2004-04-14 07:12:39 51°24.81 2°56.348 5.5 1 8.2 102250 89
2004-04-14 07:12:43 51°24.824 2°56.361 5.5 4 8.2 102250 89
2004-04-14 07:12:48 51°24.842 2°56.378 5.8 3 8.2 102250 89
2004-04-14 07:12:53 51°24.859 2°56.395 5.7 359 8.2 102250 89
2004-04-14 07:12:59 51°24.881 2°56.415 5.8 3 8.2 102250 89
2004-04-14 07:13:03 51°24.895 2°56.428 6 4 8.2 102250 88
2004-04-14 07:13:08 51°24.913 2°56.445 5.7 3 8.2 102250 88
2004-04-14 07:13:13 51°24.93 2°56.462 5.8 3 8.2 102250 88
2004-04-14 07:13:19 51°24.952 2°56.482 6 6 8.2 102250 88
2004-04-14 07:13:24 51°24.969 2°56.499 5.6 2 8.2 102240 88
2004-04-14 07:13:28 51°24.984 2°56.512 5.9 3 8.2 102240 88
2004-04-14 07:13:33 51°25.001 2°56.529 5.9 4 8.2 102240 88
2004-04-14 07:13:38 51°25.019 2°56.545 5.9 4 8.2 102240 88
2004-04-14 07:13:43 51°25.037 2°56.562 5.8   8.2 102250 88
2004-04-14 07:13:48 51°25.055 2°56.579 5.9 3 8.2 102250 88
2004-04-14 07:13:53 51°25.072 2°56.595 5.9 3 8.2 102250 88
2004-04-14 07:13:59 51°25.094 2°56.615 6.4 2 8.2 102250 88
2004-04-14 07:14:03 51°25.108 2°56.628 6.3 2 8.2 102250 88
2004-04-14 07:14:09 51°25.129 2°56.649 6.1 3 8.2 102250 88
2004-04-14 07:14:13 51°25.143 2°56.662 6 4 8.2 102250 88
2004-04-14 07:14:19 51°25.164 2°56.682 5.8 4 8.2 102250 88
2004-04-14 07:14:24 51°25.182 2°56.699 6 4 8.2 102250 88
2004-04-14 07:14:29 51°25.2 2°56.716 5.7 3 8.2 102250 88
2004-04-14 07:14:33 51°25.214 2°56.729 5.8 3 8.2 102250 88
2004-04-14 07:14:39 51°25.235 2°56.749 6 6 8.2 102250 88
2004-04-14 07:14:43 51°25.249 2°56.762 5.9 4 8.2 102250 88
2004-04-14 07:14:49 51°25.27 2°56.783 5.7 3 8.2 102250 88
2004-04-14 07:14:53 51°25.284 2°56.796 5.8 5 8.2 102250 88
2004-04-14 07:14:59 51°25.306 2°56.816 5.9 2 8.2 102250 88
2004-04-14 07:15:03 51°25.32 2°56.829 5.9 1 8.2 102250 88
2004-04-14 07:15:07 51°25.334 2°56.842 5.9 4 8.2 102250 88
2004-04-14 07:15:13 51°25.355 2°56.862 5.7 3 8.2 102250 88
2004-04-14 07:15:17 51°25.369 2°56.875 5.8 3 8.2 102250 88
2004-04-14 07:15:23 51°25.39 2°56.895 5.5 7 8.2 102250 88
2004-04-14 07:15:29 51°25.411 2°56.915 5.6 3 8.2 102250 88
2004-04-14 07:15:33 51°25.425 2°56.929 6.2 3 8.2 102250 88
2004-04-14 07:15:39 51°25.446 2°56.949 6.5 4 8.2 102250 88
2004-04-14 07:15:44 51°25.464 2°56.966 6.6 1 8.2 102250 88
2004-04-14 07:15:48 51°25.478 2°56.979 6.1 6 8.2 102250 88
2004-04-14 07:15:53 51°25.495 2°56.996 6.1 1 8.2 102250 88
2004-04-14 07:15:59 51°25.516 2°57.017 6.1   8.2 102250 88
2004-04-14 07:16:03 51°25.53 2°57.03 6.4 2 8.1 102250 88
2004-04-14 07:16:08 51°25.548 2°57.047 5.9 4 8.1 102250 88
2004-04-14 07:16:13 51°25.565 2°57.064 6 5 8.2 102250 88
2004-04-14 07:16:19 51°25.586 2°57.084 5.8 3 8.2 102250 88
2004-04-14 07:16:24 51°25.604 2°57.101 5.9 6 8.2 102250 88
2004-04-14 07:16:29 51°25.622 2°57.117 6.1 5 8.2 102250 88
2004-04-14 07:16:33 51°25.636 2°57.131 6.1 5 8.2 102250 88
2004-04-14 07:16:39 51°25.657 2°57.151 6.2 7 8.2 102250 88
2004-04-14 07:16:44 51°25.675 2°57.168 5.9 7 8.2 102250 88
2004-04-14 07:16:48 51°25.689 2°57.181 6.5 7 8.2 102250 88
2004-04-14 07:16:53 51°25.707 2°57.198 6.4 7 8.2 102250 88
2004-04-14 07:16:59 51°25.728 2°57.218 6.1 8 8.2 102250 88
2004-04-14 07:17:04 51°25.746 2°57.234 6 7 8.2 102250 88
2004-04-14 07:17:09 51°25.763 2°57.251 6 7 8.2 102250 88
2004-04-14 07:17:13 51°25.777 2°57.264 5.9 8 8.2 102250 88
2004-04-14 07:17:19 51°25.798 2°57.284 6.2 9 8.2 102250 88
2004-04-14 07:17:23 51°25.812 2°57.298 6 9 8.2 102250 88
2004-04-14 07:17:28 51°25.83 2°57.314 6.2 8 8.2 102250 88
2004-04-14 07:17:33 51°25.847 2°57.331 6.1 9 8.2 102250 88
2004-04-14 07:17:39 51°25.868 2°57.351 6.4 9 8.2 102250 88
2004-04-14 07:17:43 51°25.882 2°57.365 6.4 6 8.1 102250 88
2004-04-14 07:17:49 51°25.903 2°57.385 6.5 9 8.1 102250 88
2004-04-14 07:17:53 51°25.918 2°57.398 6.2 10 8.2 102250 88
2004-04-14 07:17:59 51°25.939 2°57.418 6.6 6 8.2 102250 88
2004-04-14 07:18:03 51°25.953 2°57.431 6.4 8 8.2 102250 88
2004-04-14 07:18:09 51°25.974 2°57.452 6.4 7 8.2 102250 88
2004-04-14 07:18:13 51°25.988 2°57.465 6.2 8 8.2 102250 88
2004-04-14 07:18:19 51°26.01 2°57.484 6.2 8 8.2 102250 88
2004-04-14 07:18:23 51°26.024 2°57.497 6.2 10 8.2 102250 88
2004-04-14 07:18:29 51°26.045 2°57.517 6 10 8.2 102250 88
2004-04-14 07:18:33 51°26.059 2°57.53 6.1 9 8.1 102250 88
2004-04-14 07:18:38 51°26.076 2°57.547 6.4 9 8.1 102250 88
2004-04-14 07:18:44 51°26.097 2°57.567 6.4 10 8.1 102250 88
2004-04-14 07:18:49 51°26.115 2°57.584 6.2 12 8.1 102250 88
2004-04-14 07:18:53 51°26.129 2°57.597 6.4 9 8.1 102250 88
2004-04-14 07:18:59 51°26.15 2°57.617 6.1 11 8.1 102250 88
2004-04-14 07:19:04 51°26.167 2°57.634 6.3 10 8.1 102250 88
2004-04-14 07:19:09 51°26.185 2°57.651 6.4 10 8.1 102250 88
2004-04-14 07:19:13 51°26.199 2°57.664 6.1 9 8.1 102250 88
2004-04-14 07:19:19 51°26.22 2°57.684 6.3 13 8.1 102250 88
2004-04-14 07:19:24 51°26.237 2°57.701 5.9 16 8.1 102250 88
2004-04-14 07:19:29 51°26.254 2°57.718 6.1 14 8.1 102250 88
2004-04-14 07:19:33 51°26.268 2°57.731 6 15 8.1 102250 88
2004-04-14 07:19:39 51°26.288 2°57.752 6.3 14 8.1 102250 88
2004-04-14 07:19:43 51°26.302 2°57.765 6.3 14 8.1 102250 88
2004-04-14 07:19:49 51°26.323 2°57.785 6.4 15 8.1 102250 88
2004-04-14 07:19:53 51°26.336 2°57.798 6.3 15 8.1 102250 88
2004-04-14 07:19:59 51°26.357 2°57.818 6.5 15 8.1 102250 88
2004-04-14 07:20:03 51°26.37 2°57.832 6.6 14 8.1 102250 88
2004-04-14 07:20:09 51°26.391 2°57.852 5.9 17 8.1 102250 88
2004-04-14 07:20:13 51°26.404 2°57.865 6.1 14 8.1 102250 88
2004-04-14 07:20:17 51°26.418 2°57.879 5.9 18 8.1 102250 88
2004-04-14 07:20:24 51°26.441 2°57.903 6.1 14 8.1 102250 88
2004-04-14 07:20:29 51°26.459 2°57.919 6.5 15 8.1 102250 88
2004-04-14 07:20:33 51°26.472 2°57.933 6.5 14 8.1 102240 88
2004-04-14 07:20:39 51°26.493 2°57.953 6.3 18 8.1 102240 88
2004-04-14 07:20:43 51°26.506 2°57.967 6.1 14 8.1 102250 88
2004-04-14 07:20:49 51°26.527 2°57.986 6.4 15 8.1 102250 88
2004-04-14 07:20:53 51°26.54 2°58 6.3 14 8.1 102250 88
2004-04-14 07:20:59 51°26.561 2°58.02 6.1 17 8.1 102250 88
2004-04-14 07:21:03 51°26.574 2°58.033 6.1 15 8.1 102250 88
2004-04-14 07:21:09 51°26.594 2°58.053 6.3 18 8.1 102250 88
2004-04-14 07:21:13 51°26.608 2°58.067 6.3 16 8.1 102250 88
2004-04-14 07:21:19 51°26.628 2°58.087 6.3 18 8.1 102250 88
2004-04-14 07:21:24 51°26.645 2°58.103 6.4 18 8.1 102240 87
2004-04-14 07:21:28 51°26.659 2°58.117 6.3 16 8.1 102240 87
2004-04-14 07:21:33 51°26.676 2°58.133 6.4 14 8.1 102250 87
2004-04-14 07:21:39 51°26.696 2°58.153 6.5 16 8.1 102250 87
2004-04-14 07:21:44 51°26.713 2°58.17 6 15 8.1 102250 88
2004-04-14 07:21:48 51°26.727 2°58.183 6.1 17 8.1 102250 88
2004-04-14 07:21:53 51°26.744 2°58.2 6.4 17 8.1 102250 88
2004-04-14 07:21:59 51°26.764 2°58.219 6.2 15 8.1 102250 88
2004-04-14 07:22:04 51°26.781 2°58.236 6.3 16 8.1 102250 88
2004-04-14 07:22:09 51°26.798 2°58.253 6.4 17 8.1 102250 88
2004-04-14 07:22:13 51°26.811 2°58.267 6.2 16 8.1 102240 87
2004-04-14 07:22:18 51°26.828 2°58.284 6.8 17 8.1 102240 87
2004-04-14 07:22:23 51°26.844 2°58.302 6.5 16 8.1 102240 88
2004-04-14 07:22:29 51°26.864 2°58.324 6.8 20 8.1 102240 88
2004-04-14 07:22:33 51°26.876 2°58.339 6.4 14 8.1 102250 88
2004-04-14 07:22:39 51°26.896 2°58.362 6.9 17 8.1 102250 88
2004-04-14 07:22:43 51°26.908 2°58.379 6.5 17 8.1 102240 88
2004-04-14 07:22:48 51°26.924 2°58.398 6.6 19 8.1 102240 88
2004-04-14 07:22:53 51°26.94 2°58.418 6.3 17 8.1 102240 88
2004-04-14 07:22:59 51°26.959 2°58.441 6.5 20 8.1 102240 88
2004-04-14 07:23:04 51°26.975 2°58.461 6.5 18 8.1 102250 88
2004-04-14 07:23:09 51°26.991 2°58.48 6.7 17 8.1 102250 88
2004-04-14 07:23:13 51°27.003 2°58.496 6.3 18 8.1 102240 88
2004-04-14 07:23:19 51°27.022 2°58.52 6.4 18 8.1 102240 88
2004-04-14 07:23:23 51°27.035 2°58.535 6.5 19 8.1 102240 88
2004-04-14 07:23:29 51°27.054 2°58.559 6.6 19 8.1 102240 88
2004-04-14 07:23:33 51°27.067 2°58.575 6.5 19 8.1 102240 88
2004-04-14 07:23:39 51°27.086 2°58.598 6.7 17 8.1 102240 88
2004-04-14 07:23:43 51°27.099 2°58.614 6.6 19 8.2 102250 88
2004-04-14 07:23:49 51°27.118 2°58.637 6.8 16 8.2 102250 88
2004-04-14 07:23:53 51°27.131 2°58.653 6.5 18 8.1 102240 88
2004-04-14 07:23:59 51°27.15 2°58.676 6.7 16 8.1 102240 88
2004-04-14 07:24:04 51°27.165 2°58.696 6.8 17 8.1 102250 88
2004-04-14 07:24:09 51°27.181 2°58.716 6.3 17 8.1 102250 88
2004-04-14 07:24:13 51°27.194 2°58.731 6.4 18 8.1 102250 88
2004-04-14 07:24:18 51°27.21 2°58.751 6.1 16 8.1 102250 88
2004-04-14 07:24:23 51°27.225 2°58.771 6.1 17 8.1 102240 88
2004-04-14 07:24:28 51°27.24 2°58.792 6.3 16 8.1 102240 88
2004-04-14 07:24:33 51°27.255 2°58.813 6 18 8.1 102240 88
2004-04-14 07:24:39 51°27.273 2°58.839 6.6 16 8.1 102240 88
2004-04-14 07:24:43 51°27.285 2°58.856 6.1 18 8.1 102240 87
2004-04-14 07:24:48 51°27.299 2°58.878 6.1 19 8.1 102240 87
2004-04-14 07:24:53 51°27.314 2°58.9 6.3 18 8.1 102240 87
2004-04-14 07:24:58 51°27.329 2°58.922 6.7 16 8.1 102240 87
2004-04-14 07:25:04 51°27.347 2°58.948 6.7 19 8.1 102250 87
2004-04-14 07:25:09 51°27.361 2°58.97 6.7 18 8.1 102250 87
2004-04-14 07:25:13 51°27.373 2°58.987 6.3 18 8.1 102250 87
2004-04-14 07:25:19 51°27.39 2°59.014 6.6 19 8.1 102250 87
2004-04-14 07:25:24 51°27.406 2°59.035 6.4 18 8 102240 87
2004-04-14 07:25:29 51°27.42 2°59.057 6.6 19 8 102240 87
2004-04-14 07:25:33 51°27.432 2°59.074 6.6 19 8.1 102250 87
2004-04-14 07:25:38 51°27.447 2°59.096 6.6 19 8.1 102250 87
2004-04-14 07:25:43 51°27.462 2°59.118 6.2 19 8 102250 87
2004-04-14 07:25:49 51°27.48 2°59.144 6.1 19 8 102250 87
2004-04-14 07:25:53 51°27.492 2°59.161 6.3 19 8.1 102240 87
2004-04-14 07:25:59 51°27.51 2°59.187 6.9 17 8.1 102240 87
2004-04-14 07:26:04 51°27.525 2°59.209 4.4 20 8 102240 87
2004-04-14 07:26:09 51°27.539 2°59.23 6.6 20 8 102240 87
2004-04-14 07:26:13 51°27.551 2°59.248 7.2 18 8 102240 87
2004-04-14 07:26:19 51°27.569 2°59.274 6.7 17 8 102240 87
2004-04-14 07:26:23 51°27.581 2°59.292 6.8 19 8.1 102240 87
2004-04-14 07:26:29 51°27.599 2°59.318 6.4 17 8.1 102240 87
2004-04-14 07:26:33 51°27.611 2°59.335 6.7 19 8.1 102240 87
2004-04-14 07:26:39 51°27.628 2°59.361 6.3 20 8.1 102240 87
2004-04-14 07:26:43 51°27.64 2°59.378 6.5 18 8.1 102240 87
2004-04-14 07:26:48 51°27.655 2°59.399 6.7 18 8.1 102240 87
2004-04-14 07:26:53 51°27.67 2°59.421 6.4 20 8 102240 87
2004-04-14 07:26:57 51°27.682 2°59.438 6.6 18 8 102240 87
2004-04-14 07:27:03 51°27.7 2°59.464 6.7 20 8 102240 87
2004-04-14 07:27:08 51°27.715 2°59.486 6.7 18 8 102240 87
2004-04-14 07:27:13 51°27.73 2°59.507 6.8 22 8 102240 87
2004-04-14 07:27:17 51°27.741 2°59.525 6.6 20 8 102240 87
2004-04-14 07:27:23 51°27.759 2°59.551 7 21 8 102240 87
2004-04-14 07:27:28 51°27.774 2°59.572 6.4 20 8 102240 87
2004-04-14 07:27:33 51°27.79 2°59.594 6.5 20 8.1 102240 87
2004-04-14 07:27:39 51°27.808 2°59.62 6.8 19 8.1 102240 87
2004-04-14 07:27:43 51°27.819 2°59.637 7 20 8.1 102250 87
2004-04-14 07:27:49 51°27.836 2°59.665 6.7 20 8.1 102250 87
2004-04-14 07:27:53 51°27.848 2°59.684 6.8 20 8.1 102240 87
2004-04-14 07:27:57 51°27.858 2°59.703 6.8 18 8.1 102240 87
2004-04-14 07:28:04 51°27.878 2°59.736 6.9 19 8.1 102240 87
2004-04-14 07:28:09 51°27.891 2°59.76 6.5 21 8.1 102240 87
2004-04-14 07:28:13 51°27.902 2°59.779 6.9 21 8.1 102240 87
2004-04-14 07:28:19 51°27.918 2°59.809 6.9 20 8.1 102240 87
2004-04-14 07:28:23 51°27.929 2°59.828 6.6 21 8.1 102240 87
2004-04-14 07:28:28 51°27.943 2°59.852 6.5 20 8.1 102240 87
2004-04-14 07:28:33 51°27.956 2°59.877 7 20 8.1 102240 87
2004-04-14 07:28:37 51°27.967 2°59.896 6.9 19 8.1 102240 87
2004-04-14 07:28:44 51°27.986 2°59.93 6.7 22 8.1 102240 87
2004-04-14 07:28:49 51°27.998 2°59.956 6.6 20 8.1 102240 87
2004-04-14 07:28:53 51°28.008 2°59.977 7 21 8.1 102240 87
2004-04-14 07:28:59 51°28.023 3°0.009 6.6 21 8.1 102240 87
2004-04-14 07:29:03 51°28.032 3°0.03 7 21 8.1 102240 87
2004-04-14 07:29:08 51°28.043 3°0.057 6.5 19 8.1 102240 87
2004-04-14 07:29:13 51°28.055 3°0.084 6.8 22 8.1 102240 87
2004-04-14 07:29:19 51°28.068 3°0.117 6.9 20 8.1 102240 87
2004-04-14 07:29:24 51°28.079 3°0.144 6.8 18 8.1 102240 87
2004-04-14 07:29:29 51°28.091 3°0.171 6.9 19 8.1 102240 87
2004-04-14 07:29:33 51°28.1 3°0.193 6.8 19 8.2 102240 87
2004-04-14 07:29:39 51°28.113 3°0.225 6.6 20 8.2 102240 87
2004-04-14 07:29:43 51°28.122 3°0.247 6.4 21 8.1 102240 87
2004-04-14 07:29:49 51°28.136 3°0.279 6.5 21 8.1 102240 87
2004-04-14 07:29:53 51°28.146 3°0.301 6.2 21 8.1 102240 86
2004-04-14 07:29:59 51°28.159 3°0.333 6.4 20 8.1 102240 86
2004-04-14 07:30:04 51°28.17 3°0.36 6.3 19 8.1 102240 86
2004-04-14 07:30:09 51°28.182 3°0.387 6.5 19 8.1 102240 86
2004-04-14 07:30:13 51°28.191 3°0.409 6.2 20 8.2 102240 86
2004-04-14 07:30:19 51°28.205 3°0.441 6.1 17 8.2 102240 86
2004-04-14 07:30:23 51°28.215 3°0.462 6.2 19 8.2 102240 86
2004-04-14 07:30:29 51°28.23 3°0.493 5.8 16 8.2 102240 86
2004-04-14 07:30:33 51°28.239 3°0.515 5.7 16 8.2 102250 86
2004-04-14 07:30:39 51°28.255 3°0.545 5.7 16 8.2 102250 86
2004-04-14 07:30:43 51°28.264 3°0.565 5.9 16 8.2 102240 86
2004-04-14 07:30:49 51°28.28 3°0.596 5.7 21 8.2 102240 86
2004-04-14 07:30:53 51°28.29 3°0.617 5.5 19 8.2 102240 86
2004-04-14 07:30:57 51°28.301 3°0.637 5.7 17 8.2 102240 86
2004-04-14 07:31:04 51°28.319 3°0.672 5.9 15 8.2 102240 86
2004-04-14 07:31:09 51°28.331 3°0.698 5.9 15 8.2 102240 86
2004-04-14 07:31:13 51°28.341 3°0.718 6.1 12 8.2 102240 86
2004-04-14 07:31:19 51°28.357 3°0.749 5.8 12 8.2 102240 86
2004-04-14 07:31:23 51°28.367 3°0.769 5.8 15 8.2 102250 86
2004-04-14 07:31:28 51°28.38 3°0.795 6.1 12 8.2 102250 86
2004-04-14 07:31:33 51°28.393 3°0.82 6 14 8.2 102240 86
2004-04-14 07:31:39 51°28.408 3°0.85 6 12 8.2 102240 86
2004-04-14 07:31:44 51°28.421 3°0.876 5.9 13 8.2 102240 87
2004-04-14 07:31:49 51°28.434 3°0.901 6.2 13 8.2 102240 87
2004-04-14 07:31:53 51°28.444 3°0.922 6 13 8.2 102240 87
2004-04-14 07:31:59 51°28.46 3°0.952 6.2 16 8.2 102240 87
2004-04-14 07:32:03 51°28.47 3°0.972 6.1 14 8.2 102250 86
2004-04-14 07:32:08 51°28.483 3°0.997 6.1 14 8.2 102250 86
2004-04-14 07:32:13 51°28.496 3°1.023 6 12 8.2 102240 86
2004-04-14 07:32:19 51°28.512 3°1.054 6.1 12 8.2 102240 86
2004-04-14 07:32:24 51°28.525 3°1.079 6 13 8.2 102250 86
2004-04-14 07:32:29 51°28.537 3°1.105 6 16 8.2 102250 86
2004-04-14 07:32:33 51°28.548 3°1.125 6 16 8.2 102240 87
2004-04-14 07:32:39 51°28.563 3°1.155 6.3 14 8.2 102240 87
2004-04-14 07:32:43 51°28.574 3°1.176 6.3 15 8.2 102250 87
2004-04-14 07:32:48 51°28.586 3°1.201 6 13 8.2 102250 87
2004-04-14 07:32:53 51°28.6 3°1.226 6.2 12 8.2 102240 87
2004-04-14 07:32:59 51°28.615 3°1.257 5.7 12 8.2 102240 87
2004-04-14 07:33:04 51°28.628 3°1.282 5.6 12 8.2 102240 87
2004-04-14 07:33:09 51°28.641 3°1.308 5.9 15 8.2 102240 87
2004-04-14 07:33:13 51°28.651 3°1.328 5.8 15 8.2 102240 86
2004-04-14 07:33:19 51°28.667 3°1.358 6 15 8.2 102240 86
2004-04-14 07:33:23 51°28.677 3°1.378 6.2 14 8.2 102250 86
2004-04-14 07:33:29 51°28.693 3°1.409 6 14 8.2 102250 86
2004-04-14 07:33:33 51°28.704 3°1.429 6 13 8.2 102250 86
2004-04-14 07:33:37 51°28.714 3°1.449 6.1 12 8.2 102250 86
2004-04-14 07:33:43 51°28.729 3°1.48 5.7 13 8.2 102240 87
2004-04-14 07:33:49 51°28.745 3°1.51 6.2 11 8.2 102240 87
2004-04-14 07:33:53 51°28.755 3°1.53 6.4 14 8.2 102250 87
2004-04-14 07:33:59 51°28.771 3°1.56 6 13 8.2 102250 87
2004-04-14 07:34:03 51°28.781 3°1.581 6.3 13 8.2 102250 87
2004-04-14 07:34:08 51°28.794 3°1.606 6.2 12 8.2 102250 87
2004-04-14 07:34:13 51°28.808 3°1.631 5.9 12 8.2 102240 87
2004-04-14 07:34:19 51°28.824 3°1.662 5.8 13 8.2 102240 87
2004-04-14 07:34:23 51°28.834 3°1.682 6.6 13 8.2 102250 87
2004-04-14 07:34:29 51°28.85 3°1.713 6 12 8.2 102250 87
2004-04-14 07:34:33 51°28.86 3°1.733 5.9 14 8.2 102250 87
2004-04-14 07:34:39 51°28.875 3°1.764 5.8 14 8.2 102250 87
2004-04-14 07:34:43 51°28.886 3°1.784 5.9 11 8.1 102250 87
2004-04-14 07:34:49 51°28.902 3°1.815 5.9 11 8.1 102250 87
2004-04-14 07:34:53 51°28.912 3°1.835 5.8 12 8.2 102240 87
2004-04-14 07:34:59 51°28.928 3°1.866 5.8 12 8.2 102240 87
2004-04-14 07:35:04 51°28.941 3°1.891 5.7 11 8.2 102250 87
2004-04-14 07:35:09 51°28.953 3°1.917 5.6 10 8.2 102250 87
2004-04-14 07:35:13 51°28.964 3°1.937 6.2 12 8.2 102250 87
2004-04-14 07:35:19 51°28.979 3°1.968 5.9 13 8.2 102250 87
2004-04-14 07:35:23 51°28.99 3°1.989 6.1 14 8.2 102250 87
2004-04-14 07:35:29 51°29.005 3°2.02 6.1 13 8.2 102250 87
2004-04-14 07:35:33 51°29.016 3°2.04 6 12 8.2 102250 86
2004-04-14 07:35:39 51°29.031 3°2.071 5.8 14 8.2 102250 86
2004-04-14 07:35:44 51°29.045 3°2.096 5.7 10 8.1 102250 86
2004-04-14 07:35:49 51°29.058 3°2.121 6.5 12 8.1 102250 86
2004-04-14 07:35:53 51°29.069 3°2.141 6.4 13 8.2 102250 86
2004-04-14 07:35:59 51°29.085 3°2.172 6 14 8.2 102250 86
2004-04-14 07:36:03 51°29.095 3°2.192 6.3 14 8.2 102250 86
2004-04-14 07:36:09 51°29.111 3°2.223 6.1 12 8.2 102250 86
2004-04-14 07:36:12 51°29.119 3°2.238 6.1 15 8.2 102250 86
2004-04-14 07:36:19 51°29.137 3°2.273 5.8 12 8.2 102250 86
2004-04-14 07:36:24 51°29.15 3°2.299 6 13 8.2 102250 86
2004-04-14 07:36:29 51°29.164 3°2.325 6.4 17 8.2 102250 86
2004-04-14 07:36:33 51°29.174 3°2.345 5.7 16 8.2 102240 87
2004-04-14 07:36:39 51°29.19 3°2.376 6.2 13 8.2 102240 87
2004-04-14 07:36:44 51°29.203 3°2.401 5.8 14 8.2 102250 86
2004-04-14 07:36:49 51°29.216 3°2.426 5.9 12 8.2 102250 86
2004-04-14 07:36:53 51°29.227 3°2.447 6.1 14 8.2 102250 86
2004-04-14 07:36:59 51°29.243 3°2.477 6 14 8.2 102250 86
2004-04-14 07:37:04 51°29.256 3°2.503 6.3 18 8.2 102250 86
2004-04-14 07:37:08 51°29.266 3°2.523 5.7 15 8.2 102250 86
2004-04-14 07:37:14 51°29.282 3°2.554 5.6 15 8.2 102250 86
2004-04-14 07:37:18 51°29.292 3°2.575 5.9 14 8.2 102250 86
2004-04-14 07:37:23 51°29.305 3°2.6 6.1 16 8.2 102240 86
2004-04-14 07:37:29 51°29.32 3°2.631 6.1 11 8.2 102240 86
2004-04-14 07:37:33 51°29.33 3°2.652 6.1 13 8.2 102250 86
2004-04-14 07:37:39 51°29.346 3°2.683 5.8 14 8.2 102250 86
2004-04-14 07:37:43 51°29.356 3°2.704 5.9 15 8.2 102250 86
2004-04-14 07:37:49 51°29.372 3°2.734 5.8 17 8.2 102250 86
2004-04-14 07:37:54 51°29.385 3°2.76 5.9 14 8.2 102250 86
2004-04-14 07:37:59 51°29.398 3°2.785 5.7 16 8.2 102250 86